Amelia, Virginia, United States
Lat: 37.37N, Lon: 77.92W
Wx Zone: VAZ068
Local Info
Past Weather Observations for Friday, April 29, 2016

NOTE: This archive is for the closest National Weather Service station to Amelia. Information may differ from the station used for current weather conditions.

Click here for Long-term Archive

Time Weather Temperature Dewpoint Humidity Pressure Winds Precip Visibility
23:55
Overcast
57°F / 14°C 57°F / 14°C 100% 30.12 in
(1020 mb)
NNE 6.9 mph
(NNE 11 kph)
- 7SM
23:35
Overcast
Light Rain
57°F / 14°C 57°F / 14°C 100% 30.09 in
(1019 mb)
NNE 5.8 mph
(NNE 9 kph)
- 10SM
23:15
Overcast
Light Rain
57°F / 14°C 57°F / 14°C 100% 30.09 in
(1019 mb)
NE 8.1 mph
(NE 13 kph)
- 5SM
22:55
Overcast
Light Rain
57°F / 14°C 57°F / 14°C 100% 30.09 in
(1019 mb)
NE 8.1 mph
(NE 13 kph)
- 4SM
22:35
Overcast
59°F / 15°C 59°F / 15°C 100% 30.09 in
(1019 mb)
ENE 8.1 mph
(ENE 13 kph)
- 7SM
22:15
Overcast
59°F / 15°C 55°F / 13°C 88% 30.09 in
(1019 mb)
NE 8.1 mph
(NE 13 kph)
- 10SM
21:55
Overcast
61°F / 16°C 55°F / 13°C 83% 30.06 in
(1018 mb)
NE 5.8 mph
(NE 9 kph)
- 10SM
21:35
Overcast
61°F / 16°C 55°F / 13°C 83% 30.06 in
(1018 mb)
NE 3.5 mph
(NE 6 kph)
- 10SM
21:15
Overcast
61°F / 16°C 55°F / 13°C 83% 30.06 in
(1018 mb)
ENE 4.6 mph
(ENE 7 kph)
- 10SM
20:55
Overcast
61°F / 16°C 55°F / 13°C 83% 30.06 in
(1018 mb)
E 3.5 mph
(E 6 kph)
- 10SM
20:35
Overcast
61°F / 16°C 55°F / 13°C 83% 30.06 in
(1018 mb)
E 3.5 mph
(E 6 kph)
- 10SM
20:15
Overcast
61°F / 16°C 55°F / 13°C 83% 30.04 in
(1017 mb)
ENE 6.9 mph
(ENE 11 kph)
- 10SM
19:55
Overcast
61°F / 16°C 55°F / 13°C 83% 30.04 in
(1017 mb)
NE 6.9 mph
(NE 11 kph)
- 7SM
19:35
Overcast
61°F / 16°C 55°F / 13°C 83% 30.04 in
(1017 mb)
NE 8.1 mph
(NE 13 kph)
- 7SM
19:15
Overcast
61°F / 16°C 55°F / 13°C 83% 30.04 in
(1017 mb)
ENE 4.6 mph
(ENE 7 kph)
- 7SM
18:55
Overcast
61°F / 16°C 55°F / 13°C 83% 30.01 in
(1016 mb)
E 3.5 mph
(E 6 kph)
- 7SM
18:35
Overcast
61°F / 16°C 55°F / 13°C 83% 30.01 in
(1016 mb)
NE 6.9 mph
(NE 11 kph)
- 7SM
18:15
Overcast
63°F / 17°C 55°F / 13°C 77% 30.01 in
(1016 mb)
E 4.6 mph
(E 7 kph)
- 10SM
17:55
Overcast
63°F / 17°C 55°F / 13°C 77% 30.01 in
(1016 mb)
E 4.6 mph
(E 7 kph)
- 10SM
17:35
Overcast
64°F / 18°C 55°F / 13°C 73% 30.01 in
(1016 mb)
ENE 5.8 mph
(ENE 9 kph)
- 10SM
17:15
Overcast
64°F / 18°C 55°F / 13°C 73% 30.01 in
(1016 mb)
E 3.5 mph
(E 6 kph)
- 10SM
16:55
Overcast
64°F / 18°C 55°F / 13°C 73% 30.01 in
(1016 mb)
ENE 3.5 mph
(ENE 6 kph)
- 10SM
16:35
Overcast
64°F / 18°C 55°F / 13°C 73% 30.01 in
(1016 mb)
NE 4.6 mph
(NE 7 kph)
- 10SM
16:15
Overcast
64°F / 18°C 55°F / 13°C 73% 30.01 in
(1016 mb)
NE 3.5 mph
(NE 6 kph)
- 10SM
15:55
Mostly Cloudy
64°F / 18°C 55°F / 13°C 73% 30.01 in
(1016 mb)
Calm - 10SM
15:35
Mostly Cloudy
63°F / 17°C 55°F / 13°C 77% 30.01 in
(1016 mb)
Calm - 10SM
15:15
Partly Cloudy
64°F / 18°C 55°F / 13°C 73% 30.01 in
(1016 mb)
Calm - 10SM
14:55
Mostly Cloudy
63°F / 17°C 55°F / 13°C 77% 30.01 in
(1016 mb)
Calm - 10SM
14:35
Overcast
61°F / 16°C 55°F / 13°C 83% 30.04 in
(1017 mb)
NNW 3.5 mph
(NNW 6 kph)
- 10SM
14:15
Overcast
61°F / 16°C 57°F / 14°C 88% 30.04 in
(1017 mb)
Calm - 10SM
13:55
Overcast
59°F / 15°C 57°F / 14°C 94% 30.04 in
(1017 mb)
Calm - 10SM
13:35
Overcast
59°F / 15°C 57°F / 14°C 94% 30.04 in
(1017 mb)
N 3.5 mph
(N 6 kph)
- 10SM
13:15
Overcast
59°F / 15°C 55°F / 13°C 88% 30.06 in
(1018 mb)
Calm - 10SM
12:55
Overcast
57°F / 14°C 57°F / 14°C 100% 30.06 in
(1018 mb)
Calm - 10SM
12:35
Overcast
57°F / 14°C 57°F / 14°C 100% 30.06 in
(1018 mb)
NNW 3.5 mph
(NNW 6 kph)
- 10SM
12:15
Overcast
57°F / 14°C 55°F / 13°C 94% 30.04 in
(1017 mb)
Calm - 10SM
11:55
Overcast
57°F / 14°C 55°F / 13°C 94% 30.04 in
(1017 mb)
NE 4.6 mph
(NE 7 kph)
- 10SM
11:35
Overcast
57°F / 14°C 57°F / 14°C 100% 30.04 in
(1017 mb)
NE 4.6 mph
(NE 7 kph)
- 7SM
11:15
Overcast
57°F / 14°C 57°F / 14°C 100% 30.04 in
(1017 mb)
ENE 5.8 mph
(ENE 9 kph)
- 7SM
10:55
Overcast
57°F / 14°C 57°F / 14°C 100% 30.04 in
(1017 mb)
NE 5.8 mph
(NE 9 kph)
- 10SM
10:35
Overcast
55°F / 13°C 55°F / 13°C 100% 30.04 in
(1017 mb)
ENE 6.9 mph
(ENE 11 kph)
- 10SM
10:15
Overcast
55°F / 13°C 55°F / 13°C 100% 30.04 in
(1017 mb)
NE 6.9 mph
(NE 11 kph)
- 7SM
09:55
Overcast
55°F / 13°C 55°F / 13°C 100% 30.04 in
(1017 mb)
NE 6.9 mph
(NE 11 kph)
- 10SM
09:35
Overcast
55°F / 13°C 55°F / 13°C 100% 30.04 in
(1017 mb)
ENE 6.9 mph
(ENE 11 kph)
- 10SM
09:15
Overcast
55°F / 13°C 55°F / 13°C 100% 30.04 in
(1017 mb)
ENE 8.1 mph
(ENE 13 kph)
- 7SM
08:55
Overcast
Fog And Mist
55°F / 13°C 55°F / 13°C 100% 30.04 in
(1017 mb)
NE 8.1 mph
(NE 13 kph)
- 5SM
08:35
Overcast
Fog And Mist
54°F / 12°C 54°F / 12°C 100% 30.04 in
(1017 mb)
NE 6.9 mph
(NE 11 kph)
- 3SM
08:15
Overcast
Fog And Mist
54°F / 12°C 54°F / 12°C 100% 30.04 in
(1017 mb)
NNE 8.1 mph
(NNE 13 kph)
- 4SM
07:55
Overcast
Fog And Mist
54°F / 12°C 54°F / 12°C 100% 30.04 in
(1017 mb)
NNE 6.9 mph
(NNE 11 kph)
- 3SM
07:35
Overcast
Fog And Mist
54°F / 12°C 54°F / 12°C 100% 30.04 in
(1017 mb)
N 5.8 mph
(N 9 kph)
- 2 1/2SM
07:15
Overcast
Fog And Mist
54°F / 12°C 54°F / 12°C 100% 30.04 in
(1017 mb)
N 6.9 mph
(N 11 kph)
- 3SM
06:55
Overcast
54°F / 12°C 54°F / 12°C 100% 30.04 in
(1017 mb)
NNE 6.9 mph
(NNE 11 kph)
- 7SM
06:35
Overcast
Fog And Mist
54°F / 12°C 54°F / 12°C 100% 30.01 in
(1016 mb)
N 5.8 mph
(N 9 kph)
- 3SM
06:15
Overcast
Fog And Mist
54°F / 12°C 54°F / 12°C 100% 30.01 in
(1016 mb)
NNE 8.1 mph
(NNE 13 kph)
- 2 1/2SM
05:55
Overcast
Fog And Mist
54°F / 12°C 54°F / 12°C 100% 30.01 in
(1016 mb)
N 5.8 mph
(N 9 kph)
- 2SM
05:35
Overcast
Fog And Mist
54°F / 12°C 54°F / 12°C 100% 30.01 in
(1016 mb)
NNW 5.8 mph
(NNW 9 kph)
- 2SM
05:15
Overcast
Fog And Mist
54°F / 12°C 54°F / 12°C 100% 30.01 in
(1016 mb)
N 6.9 mph
(N 11 kph)
- 3SM
04:55
Overcast
Fog And Mist
54°F / 12°C 54°F / 12°C 100% 30.01 in
(1016 mb)
N 6.9 mph
(N 11 kph)
- 4SM
04:35
Overcast
Fog And Mist
54°F / 12°C 54°F / 12°C 100% 30.01 in
(1016 mb)
N 6.9 mph
(N 11 kph)
- 3SM
04:15
Overcast
54°F / 12°C 54°F / 12°C 100% 29.98 in
(1015 mb)
N 8.1 mph
(N 13 kph)
- 7SM
03:55
Overcast
Drizzle
54°F / 12°C 54°F / 12°C 100% 29.98 in
(1015 mb)
N 6.9 mph
(N 11 kph)
- 7SM
03:35
Overcast
Light Rain
54°F / 12°C 54°F / 12°C 100% 29.98 in
(1015 mb)
N 5.8 mph
(N 9 kph)
- 7SM
03:15
Overcast
Light Rain
54°F / 12°C 54°F / 12°C 100% 29.98 in
(1015 mb)
N 3.5 mph
(N 6 kph)
- 10SM
02:55
Overcast
Drizzle
54°F / 12°C 54°F / 12°C 100% 29.98 in
(1015 mb)
E 4.6 mph
(E 7 kph)
- 10SM
02:35
Overcast
54°F / 12°C 54°F / 12°C 100% 29.98 in
(1015 mb)
NE 9.2 mph
(NE 15 kph)
- 7SM
02:15
Overcast
54°F / 12°C 54°F / 12°C 100% 29.98 in
(1015 mb)
NE 9.2 mph
(NE 15 kph)
- 7SM
01:55
Overcast
55°F / 13°C 55°F / 13°C 100% 29.98 in
(1015 mb)
N 6.9 mph
(N 11 kph)
- 7SM
01:35
Overcast
55°F / 13°C 55°F / 13°C 100% 29.98 in
(1015 mb)
N 9.2 mph
(N 15 kph)
- 10SM
01:15
Overcast
55°F / 13°C 55°F / 13°C 100% 29.98 in
(1015 mb)
N 6.9 mph
(N 11 kph)
- 10SM
00:55
Overcast
55°F / 13°C 55°F / 13°C 100% 29.95 in
(1014 mb)
N 9.2 mph
(N 15 kph)
- 10SM
00:35
Overcast
57°F / 14°C 57°F / 14°C 100% 29.95 in
(1014 mb)
NE 9.2 mph
(NE 15 kph)
- 10SM
00:15
Overcast
57°F / 14°C 57°F / 14°C 100% 29.98 in
(1015 mb)
N 8.1 mph
(N 13 kph)
- 10SM
Time Weather Temperature Dewpoint Humidity Pressure Winds Precip Visibility


Weather for websites

WeatherForYou.com, LLC is not responsible for any damages or problems caused by this service. Current weather conditions are obtained from the closest station including government and personal stations which may have varying degrees of accuracy. Weather forecasts are derived from the NOAA NDFD. Like all things, this site belongs to Jesus Christ... He just trusts us to maintain it. If you have any questions or comments email webmaster@weatherforyou.com

Copyright © 2016, WeatherForYou.com LLC. All rights reserved.